User: anonymous   Login
Location: Unspecified
(0.0000°N, 0.0000°E)
Time: 19:15:21
(UTC+00:00)
Language:

PROITERES - Orbit

View from above orbital plane
View from above orbital plane
View from above satellite
View from above satellite

Ground track
Ground track

The orbit data is extracted from the following two-line orbital elements,

1 38756U 12047B   18140.35071874  .00000072  00000-0  18220-4 0  9998
2 38756  98.3139 278.9272 0013182 122.5097 237.7395 14.76475929306595
Epoch (UTC): 20 May 2018 08:25:02
Eccentricity: 0.0013182
inclination: 98.3139°
perigee height: 631 km
apogee height: 650 km
right ascension of ascending node: 278.9272°
argument of perigee: 122.5097°
revolutions per day: 14.76475929
mean anomaly at epoch: 237.7395°
orbit number at epoch: 30659

The dashed part of the orbit path shows where the satellite is in the earth's shadow,  

DLR